Change the Weather History Date:

Sunday, January 20, 2013

  Actual Average Record
Temperature  
Mean Temperature 80 °F -  
Max Temperature 88 °F 89 °F 93 °F (2003)
Min Temperature 72 °F 70 °F 62 °F (2000)
Cooling Degree Days 15    
Growing Degree Days 30 (Base 50)    
Moisture  
Dew Point 73 °F    
Average Humidity 77    
Maximum Humidity 92    
Minimum Humidity 64    
Precipitation  
Precipitation 0.00 in 0.00 in - ()
Sea Level Pressure  
Sea Level Pressure 29.90 in    
Wind  
Wind Speed 1 mph ()    
Max Wind Speed 12 mph    
Max Gust Speed -    
Visibility 8.2 miles    
Events      
Averages and records for this station are not official NWS values.
T = Trace of Precipitation, MM = Missing Value Source: Averaged Metar Reports

Daily Weather History Graph

Daily Weather History Graph

Search for Another Location

Airport or City:

Trip Planner

Search our weather history database for the weather conditions in past years. The results will help you decide how hot, cold, wet, or windy it might be!

Date:

Astronomy

Jan. 20, 2013 Rise Set
Actual Time 7:11 AM CST 6:28 PM CST
Civil Twilight 6:48 AM CST 6:51 PM CST
Nautical Twilight 6:22 AM CST 7:18 PM CST
Astronomical Twilight 5:56 AM CST 7:44 PM CST
Moon 1:28 PM CST (1/20) 1:50 AM CST (1/20)
Length of Visible Light 12h 03m
Length of Day
11h 17m
Waxing Gibbous, 66% of the Moon is Illuminated
Jan 20
Waxing Gibbous
Jan 26
Full
Feb 3
Last Quarter
Feb 10
New
Feb 17
First Quarter

Hourly Weather History & Observations

Time (CST) Temp. Heat Index Dew Point Humidity Pressure Visibility Wind Dir Wind Speed Gust Speed Precip Events Conditions
12:42 AM 78.8 °F - 69.8 °F 74% 29.96 in 8.0 mi Calm Calm - N/A   Partly Cloudy
1:47 AM 77.0 °F - 69.8 °F 78% 29.94 in 8.0 mi Calm Calm - N/A   Partly Cloudy
2:44 AM 77.0 °F - 69.8 °F 78% 29.89 in 8.0 mi Calm Calm - N/A   Partly Cloudy
2:45 AM 74 °F - 72 °F 92% 29.93 in 6 mi North 2.2 mph - -   Scattered Clouds
4:00 AM 77.0 °F - 69.8 °F 78% 29.91 in 8.0 mi Calm Calm - N/A   Partly Cloudy
4:45 AM 77.0 °F - 69.8 °F 78% 29.91 in 8.0 mi Calm Calm - N/A   Partly Cloudy
5:45 AM 73 °F - 70 °F 88% 29.89 in 6 mi North 2.2 mph - -   Scattered Clouds
6:00 AM 75.2 °F - 69.8 °F 83% 29.91 in 8.0 mi Calm Calm - N/A   Partly Cloudy
6:42 AM 75.2 °F - 69.8 °F 83% 29.89 in 8.0 mi Calm Calm - N/A   Mostly Cloudy
7:42 AM 75.2 °F - 69.8 °F 83% 29.90 in 8.0 mi Calm Calm - N/A   Mostly Cloudy
8:42 AM 78.8 °F - 71.6 °F 78% 29.92 in 8.0 mi Calm Calm - N/A   Mostly Cloudy
8:45 AM 76 °F - 70 °F 76% 29.91 in 12 mi West 2.2 mph - -   Partly Cloudy
9:45 AM 80.6 °F 85.4 °F 73.4 °F 79% 29.94 in 8.0 mi Calm Calm - N/A   Mostly Cloudy
10:42 AM 82.4 °F 89.5 °F 75.2 °F 79% 29.94 in 8.0 mi Calm Calm - N/A   Mostly Cloudy
11:40 AM 83 °F - 73 °F 64% 29.92 in 12 mi WNW 2.2 mph - -   Partly Cloudy
11:43 AM 86.0 °F 95.1 °F 75.2 °F 70% 29.92 in 8.0 mi WSW 5.8 mph - N/A   Mostly Cloudy
12:44 PM 86.0 °F 95.1 °F 75.2 °F 70% 29.90 in 8.0 mi WSW 5.8 mph - N/A   Mostly Cloudy
1:45 PM 86.0 °F 93.4 °F 73.4 °F 66% 29.86 in 8.0 mi WSW 8.1 mph - N/A   Mostly Cloudy
2:42 PM 86.0 °F 93.4 °F 73.4 °F 66% 29.85 in 8.0 mi WSW 5.8 mph - N/A   Mostly Cloudy
2:45 PM 84 °F - 75 °F 67% 29.84 in 12 mi West 2.2 mph - -   Partly Cloudy
3:42 PM 84.2 °F 92.3 °F 75.2 °F 74% 29.83 in 8.0 mi SW 5.8 mph - N/A   Mostly Cloudy
4:43 PM 84.2 °F 90.9 °F 73.4 °F 70% 29.84 in 8.0 mi SW 11.5 mph - N/A   Overcast
5:45 PM 82 °F - 73 °F 69% 29.87 in 12 mi West 2.2 mph - -   Overcast
5:45 PM 82.4 °F 88.2 °F 73.4 °F 74% 29.83 in 8.0 mi Calm Calm - N/A   Overcast
6:45 PM 82.4 °F 88.2 °F 73.4 °F 74% 29.88 in 8.0 mi Calm Calm - N/A   Overcast
7:43 PM 80.6 °F 85.4 °F 73.4 °F 79% 29.90 in 8.0 mi Calm Calm - N/A   Mostly Cloudy
8:43 PM 80.6 °F 85.4 °F 73.4 °F 79% 29.87 in 8.0 mi Calm Calm - N/A   Mostly Cloudy
8:50 PM 78 °F - 75 °F 86% 29.96 in 6 mi ESE 2.2 mph - -   Overcast
9:43 PM 80.6 °F 85.4 °F 73.4 °F 79% 29.94 in 8.0 mi Calm Calm - N/A   Mostly Cloudy
10:43 PM 78.8 °F - 73.4 °F 83% 29.95 in 8.0 mi Calm Calm - N/A   Mostly Cloudy
11:43 PM 78.8 °F - 73.4 °F 83% 29.93 in 8.0 mi Calm Calm - N/A   Mostly Cloudy
11:50 PM 77 °F - 75 °F 91% 29.96 in 6 mi ESE 2.2 mph - -   Overcast